Time,TemperatureF,DewpointF,PressureIn,WindDirection,WindDirectionDegrees,WindSpeedMPH,WindSpeedGustMPH,Humidity,HourlyPrecipIn,Conditions,Clouds,dailyrainin,SoftwareType,DateUTC
2013-09-19 00:01:00,67.8,51.6,29.50,North,0,0.0,0.0,56,0.00,,BKN,-99.99,VWS V12.07,2013-09-18 22:01:00,
2013-09-19 00:10:00,68.0,50.8,29.47,North,0,0.0,0.0,54,0.00,,BKN,-99.99,VWS V12.07,2013-09-18 22:10:00,
2013-09-19 00:20:00,68.2,50.9,29.47,North,0,0.0,0.0,54,0.00,,BKN,-99.99,VWS V12.07,2013-09-18 22:20:00,
2013-09-19 00:30:00,68.2,50.9,29.47,North,0,0.0,0.0,54,0.00,,BKN,-99.99,VWS V12.07,2013-09-18 22:30:00,
2013-09-19 00:41:00,68.0,50.8,29.47,North,0,0.0,0.0,54,0.00,,BKN,-99.99,VWS V12.07,2013-09-18 22:41:00,
2013-09-19 00:50:00,68.2,50.4,29.47,North,0,0.0,0.0,53,0.00,,BKN,-99.99,VWS V12.07,2013-09-18 22:50:00,
2013-09-19 01:00:00,68.4,50.6,29.47,North,0,0.0,0.0,53,0.00,,BKN,-99.99,VWS V12.07,2013-09-18 23:00:00,
2013-09-19 01:10:00,68.2,51.4,29.47,North,0,0.0,0.0,55,0.00,,BKN,-99.99,VWS V12.07,2013-09-18 23:10:00,
2013-09-19 01:20:00,67.6,53.3,29.47,North,0,0.0,0.0,60,0.00,,BKN,-99.99,VWS V12.07,2013-09-18 23:20:00,
2013-09-19 01:30:00,67.5,52.7,29.47,North,0,0.0,0.0,59,0.00,,BKN,-99.99,VWS V12.07,2013-09-18 23:30:00,
2013-09-19 01:40:00,67.6,52.8,29.47,North,0,0.0,0.0,59,0.00,,BKN,-99.99,VWS V12.07,2013-09-18 23:40:00,
2013-09-19 01:50:00,67.6,53.7,29.47,North,0,0.0,0.0,61,0.00,,BKN,-99.99,VWS V12.07,2013-09-18 23:50:00,
2013-09-19 02:00:00,67.3,54.3,29.47,North,0,0.0,0.0,63,0.00,,BKN,-99.99,VWS V12.07,2013-09-19 00:00:00,
2013-09-19 02:10:00,67.3,54.3,29.47,North,0,0.0,0.0,63,0.00,,BKN,-99.99,VWS V12.07,2013-09-19 00:10:00,
2013-09-19 02:20:00,67.3,54.3,29.47,North,0,0.0,0.0,63,0.00,,SCT040,-99.99,VWS V12.07,2013-09-19 00:20:00,
2013-09-19 02:30:00,67.6,54.6,29.47,North,0,0.0,0.0,63,0.00,,SCT040,-99.99,VWS V12.07,2013-09-19 00:30:00,
2013-09-19 02:40:00,67.6,55.0,29.47,North,0,0.0,0.0,64,0.00,,BKN,-99.99,VWS V12.07,2013-09-19 00:40:00,
2013-09-19 02:50:00,66.9,56.0,29.47,North,0,0.0,0.0,68,0.00,,BKN,-99.99,VWS V12.07,2013-09-19 00:50:00,
2013-09-19 03:01:00,66.9,56.4,29.47,North,0,0.0,0.0,69,0.00,,BKN,-99.99,VWS V12.07,2013-09-19 01:01:00,
2013-09-19 03:10:00,67.1,57.4,29.47,North,0,0.0,0.0,71,0.00,,BKN,-99.99,VWS V12.07,2013-09-19 01:10:00,
2013-09-19 03:20:00,66.2,57.3,29.47,North,0,0.0,0.0,73,0.00,,BKN,-99.99,VWS V12.07,2013-09-19 01:20:00,
2013-09-19 03:30:00,66.2,58.0,29.47,North,0,0.0,0.0,75,0.00,,BKN,-99.99,VWS V12.07,2013-09-19 01:30:00,
2013-09-19 03:40:00,66.4,57.8,29.47,North,0,0.0,0.0,74,0.00,,BKN,-99.99,VWS V12.07,2013-09-19 01:40:00,
2013-09-19 03:50:00,66.7,57.4,29.44,North,0,0.0,0.0,72,0.00,,BKN,-99.99,VWS V12.07,2013-09-19 01:50:00,
2013-09-19 04:00:00,66.9,56.8,29.44,North,0,0.0,0.0,70,0.00,,BKN,-99.99,VWS V12.07,2013-09-19 02:00:00,
2013-09-19 04:10:00,67.1,56.6,29.44,North,0,0.0,0.0,69,0.00,,BKN,-99.99,VWS V12.07,2013-09-19 02:10:00,
2013-09-19 04:21:00,67.3,56.8,29.47,North,0,0.0,0.0,69,0.00,,BKN,-99.99,VWS V12.07,2013-09-19 02:21:00,
2013-09-19 04:30:00,67.1,57.0,29.47,North,0,0.0,0.0,70,0.00,,BKN,-99.99,VWS V12.07,2013-09-19 02:30:00,
2013-09-19 04:40:00,67.1,57.0,29.44,North,0,0.0,0.0,70,0.00,,BKN,-99.99,VWS V12.07,2013-09-19 02:40:00,
2013-09-19 04:50:00,67.1,57.0,29.44,North,0,0.0,0.0,70,0.00,,BKN,-99.99,VWS V12.07,2013-09-19 02:50:00,
2013-09-19 04:56:00,67.1,57.0,29.44,North,0,0.0,0.0,70,0.00,,BKN,-99.99,VWS V12.07,2013-09-19 02:56:00,
2013-09-19 05:05:00,66.9,57.2,29.44,North,0,0.0,0.0,71,0.00,,BKN,-99.99,VWS V12.07,2013-09-19 03:05:00,
2013-09-19 05:10:00,66.9,57.2,29.44,North,0,0.0,0.0,71,0.00,,BKN,-99.99,VWS V12.07,2013-09-19 03:10:00,
2013-09-19 05:20:00,66.7,57.0,29.44,North,0,0.0,0.0,71,0.00,,BKN,-99.99,VWS V12.07,2013-09-19 03:20:00,
2013-09-19 05:35:00,66.2,57.3,29.44,North,0,0.0,0.0,73,0.00,,BKN,-99.99,VWS V12.07,2013-09-19 03:35:00,
2013-09-19 05:40:00,66.2,57.3,29.44,North,0,0.0,0.0,73,0.00,,BKN,-99.99,VWS V12.07,2013-09-19 03:40:00,
2013-09-19 05:46:00,66.2,57.3,29.44,North,0,0.0,0.0,73,0.00,,BKN,-99.99,VWS V12.07,2013-09-19 03:46:00,
2013-09-19 05:55:00,66.4,57.5,29.44,North,0,0.0,0.0,73,0.00,,BKN,-99.99,VWS V12.07,2013-09-19 03:55:00,
2013-09-19 06:00:00,66.4,57.5,29.44,North,0,0.0,0.0,73,0.00,,BKN,-99.99,VWS V12.07,2013-09-19 04:00:00,
2013-09-19 06:05:00,66.4,57.5,29.44,North,0,0.0,0.0,73,0.00,,BKN,-99.99,VWS V12.07,2013-09-19 04:05:00,
2013-09-19 06:10:00,66.6,57.3,29.44,North,0,0.0,0.0,72,0.00,,BKN,-99.99,VWS V12.07,2013-09-19 04:10:00,
2013-09-19 06:15:00,66.6,57.3,29.44,North,0,0.0,0.0,72,0.00,,BKN,-99.99,VWS V12.07,2013-09-19 04:15:00,
2013-09-19 06:20:00,66.6,57.7,29.44,North,0,0.0,0.0,73,0.00,,BKN,-99.99,VWS V12.07,2013-09-19 04:20:00,
2013-09-19 06:30:00,66.7,57.8,29.44,North,0,0.0,0.0,73,0.00,,BKN,-99.99,VWS V12.07,2013-09-19 04:30:00,
2013-09-19 06:40:00,66.7,57.4,29.44,North,0,0.0,0.0,72,0.00,,BKN,-99.99,VWS V12.07,2013-09-19 04:40:00,
2013-09-19 06:45:00,66.9,57.2,29.44,North,0,0.0,0.0,71,0.00,,BKN,-99.99,VWS V12.07,2013-09-19 04:45:00,
2013-09-19 06:50:00,66.9,57.2,29.44,North,0,0.0,0.0,71,0.00,,BKN,-99.99,VWS V12.07,2013-09-19 04:50:00,
2013-09-19 07:00:00,66.9,56.8,29.44,North,0,0.0,0.0,70,0.00,,BKN,-99.99,VWS V12.07,2013-09-19 05:00:00,
2013-09-19 07:10:00,67.1,56.6,29.44,North,0,0.0,0.0,69,0.00,,BKN,-99.99,VWS V12.07,2013-09-19 05:10:00,
2013-09-19 07:20:00,67.3,56.4,29.47,North,0,0.0,0.0,68,0.00,,BKN,-99.99,VWS V12.07,2013-09-19 05:20:00,
2013-09-19 07:30:00,67.5,56.1,29.47,North,0,0.0,0.0,67,0.00,,BKN,-99.99,VWS V12.07,2013-09-19 05:30:00,
2013-09-19 07:40:00,67.6,56.3,29.47,North,0,0.0,0.0,67,0.00,,BKN,-99.99,VWS V12.07,2013-09-19 05:40:00,
2013-09-19 07:50:00,67.8,56.1,29.47,North,0,0.0,0.0,66,0.00,,BKN,-99.99,VWS V12.07,2013-09-19 05:50:00,
2013-09-19 08:00:00,68.0,55.4,29.47,North,0,0.0,0.0,64,0.00,,BKN,-99.99,VWS V12.07,2013-09-19 06:00:00,
2013-09-19 08:10:00,68.9,55.4,29.44,North,0,0.0,0.0,62,0.00,,BKN,-99.99,VWS V12.07,2013-09-19 06:10:00,
2013-09-19 08:20:00,68.5,56.3,29.47,North,0,0.0,0.0,65,0.00,,BKN,-99.99,VWS V12.07,2013-09-19 06:20:00,
2013-09-19 08:41:00,68.5,56.7,29.47,North,0,0.0,0.0,66,0.00, BR,,-99.99,VWS V12.07,2013-09-19 06:41:00,
2013-09-19 08:51:00,68.5,56.7,29.44,North,0,0.0,0.0,66,0.00, BR,,-99.99,VWS V12.07,2013-09-19 06:51:00,
2013-09-19 09:01:00,68.5,56.7,29.44,North,0,0.0,0.0,66,0.00, BR,,-99.99,VWS V12.07,2013-09-19 07:01:00,
2013-09-19 09:11:00,70.0,54.1,29.47,North,0,0.0,0.0,57,0.00, BR,,-99.99,VWS V12.07,2013-09-19 07:11:00,
2013-09-19 09:21:00,70.0,53.1,29.47,North,0,0.0,0.0,55,0.00, BR,,-99.99,VWS V12.07,2013-09-19 07:21:00,
2013-09-19 09:31:00,70.0,53.1,29.47,North,0,0.0,0.0,55,0.00, BR,,-99.99,VWS V12.07,2013-09-19 07:31:00,
2013-09-19 09:41:00,70.0,53.1,29.47,North,0,0.0,0.0,55,0.00,,SCT,-99.99,VWS V12.07,2013-09-19 07:41:00,
2013-09-19 09:50:00,70.0,53.1,29.47,North,0,0.0,0.0,55,0.00,,SCT,-99.99,VWS V12.07,2013-09-19 07:50:00,
2013-09-19 10:01:00,70.0,53.1,29.47,North,0,0.0,0.0,55,0.00,,SCT,-99.99,VWS V12.07,2013-09-19 08:01:00,
2013-09-19 10:10:00,70.0,53.1,29.47,North,0,0.0,0.0,55,0.00,,SCT,-99.99,VWS V12.07,2013-09-19 08:10:00,
2013-09-19 10:20:00,70.0,53.1,29.47,North,0,0.0,0.0,55,0.00,,SCT,-99.99,VWS V12.07,2013-09-19 08:20:00,
2013-09-19 10:31:00,70.0,53.1,29.47,North,0,0.0,0.0,55,0.00,,SCT,-99.99,VWS V12.07,2013-09-19 08:31:00,
2013-09-19 10:40:00,72.3,49.8,29.47,North,0,0.0,0.0,45,0.00,,SCT,-99.99,VWS V12.07,2013-09-19 08:40:00,
2013-09-19 10:50:00,72.3,49.8,29.47,North,0,0.0,0.0,45,0.00,,SCT,-99.99,VWS V12.07,2013-09-19 08:50:00,
2013-09-19 11:00:00,72.3,49.8,29.47,North,0,0.0,0.0,45,0.00,,SCT,-99.99,VWS V12.07,2013-09-19 09:00:00,
2013-09-19 11:10:00,72.3,49.8,29.47,North,0,0.0,0.0,45,0.00,,SCT,-99.99,VWS V12.07,2013-09-19 09:10:00,
2013-09-19 11:20:00,72.3,49.8,29.47,North,0,0.0,0.0,45,0.00,,SCT,-99.99,VWS V12.07,2013-09-19 09:20:00,
2013-09-19 11:30:00,72.3,49.8,29.47,North,0,0.0,0.0,45,0.00,,SCT,-99.99,VWS V12.07,2013-09-19 09:30:00,
2013-09-19 11:40:00,72.3,49.8,29.47,North,0,0.0,0.0,45,0.00,,SCT,-99.99,VWS V12.07,2013-09-19 09:40:00,
2013-09-19 11:50:00,72.3,49.8,29.47,North,0,0.0,0.0,45,0.00,,SCT,-99.99,VWS V12.07,2013-09-19 09:50:00,
2013-09-19 12:00:00,74.8,46.8,29.47,North,0,0.0,0.0,37,0.00,,SCT,-99.99,VWS V12.07,2013-09-19 10:00:00,
2013-09-19 12:10:00,74.8,46.8,29.47,North,0,0.0,0.0,37,0.00,,SCT,-99.99,VWS V12.07,2013-09-19 10:10:00,
2013-09-19 12:20:00,74.8,46.8,29.47,North,0,0.0,0.0,37,0.00,,SCT,-99.99,VWS V12.07,2013-09-19 10:20:00,
2013-09-19 12:30:00,75.9,46.3,29.47,North,0,0.0,0.0,35,0.00,,SCT,-99.99,VWS V12.07,2013-09-19 10:30:00,
2013-09-19 12:40:00,75.9,46.3,29.47,North,0,0.0,0.0,35,0.00,,SCT,-99.99,VWS V12.07,2013-09-19 10:40:00,
2013-09-19 12:50:00,75.9,46.3,29.47,North,0,0.0,0.0,35,0.00,,SCT,-99.99,VWS V12.07,2013-09-19 10:50:00,
2013-09-19 13:00:00,75.9,46.3,29.47,North,0,0.0,0.0,35,0.00,,SCT,-99.99,VWS V12.07,2013-09-19 11:00:00,
2013-09-19 13:10:00,75.9,46.3,29.47,North,0,0.0,0.0,35,0.00,,SCT,-99.99,VWS V12.07,2013-09-19 11:10:00,
2013-09-19 13:20:00,76.8,47.1,29.47,North,0,0.0,0.0,35,0.00,,SCT,-99.99,VWS V12.07,2013-09-19 11:20:00,
2013-09-19 13:30:00,76.8,47.1,29.47,North,0,0.0,0.0,35,0.00,,SCT,-99.99,VWS V12.07,2013-09-19 11:30:00,
2013-09-19 13:41:00,76.8,47.1,29.47,North,0,0.0,0.0,35,0.00,,BKN,-99.99,VWS V12.07,2013-09-19 11:41:00,
2013-09-19 13:51:00,76.8,47.1,29.47,North,0,0.0,0.0,35,0.00,,BKN,-99.99,VWS V12.07,2013-09-19 11:51:00,
2013-09-19 14:00:00,76.8,47.1,29.47,North,0,0.0,0.0,35,0.00,,BKN,-99.99,VWS V12.07,2013-09-19 12:00:00,
2013-09-19 14:10:00,76.8,47.1,29.47,North,0,0.0,0.0,35,0.00,,BKN,-99.99,VWS V12.07,2013-09-19 12:10:00,
2013-09-19 14:21:00,77.2,46.7,29.47,North,0,0.0,0.0,34,0.00,,BKN,-99.99,VWS V12.07,2013-09-19 12:21:00,
2013-09-19 14:30:00,77.2,46.7,29.47,North,0,0.0,0.0,34,0.00,,BKN,-99.99,VWS V12.07,2013-09-19 12:30:00,
2013-09-19 14:40:00,76.3,46.7,29.47,North,0,0.0,0.0,35,0.00,,SCT,-99.99,VWS V12.07,2013-09-19 12:40:00,
2013-09-19 14:50:00,76.6,46.2,29.47,North,0,0.0,0.0,34,0.00,,SCT,-99.99,VWS V12.07,2013-09-19 12:50:00,
2013-09-19 15:00:00,77.5,45.4,29.47,North,0,0.0,0.0,32,0.00,,SCT,-99.99,VWS V12.07,2013-09-19 13:00:00,
2013-09-19 15:10:00,77.9,45.7,29.47,North,0,0.0,0.0,32,0.00,,SCT,-99.99,VWS V12.07,2013-09-19 13:10:00,
2013-09-19 15:20:00,77.5,44.5,29.47,North,0,0.0,0.0,31,0.00,,SCT,-99.99,VWS V12.07,2013-09-19 13:20:00,
2013-09-19 15:30:00,77.0,45.7,29.47,North,0,0.0,0.0,33,0.00,,SCT,-99.99,VWS V12.07,2013-09-19 13:30:00,
2013-09-19 15:40:00,77.2,45.1,29.47,North,0,0.0,0.0,32,0.00,,SCT,-99.99,VWS V12.07,2013-09-19 13:40:00,
2013-09-19 15:51:00,76.8,47.1,29.47,North,0,0.0,0.0,35,0.00,,SCT,-99.99,VWS V12.07,2013-09-19 13:51:00,
2013-09-19 16:00:00,77.4,47.6,29.47,North,0,0.0,0.0,35,0.00,,SCT,-99.99,VWS V12.07,2013-09-19 14:00:00,
2013-09-19 16:10:00,77.0,47.3,29.47,North,0,0.0,0.0,35,0.00,,SCT,-99.99,VWS V12.07,2013-09-19 14:10:00,
2013-09-19 16:20:00,75.9,47.8,29.47,North,0,0.0,0.0,37,0.00,,SCT,-99.99,VWS V12.07,2013-09-19 14:20:00,
2013-09-19 16:30:00,75.6,48.2,29.47,North,0,0.0,0.0,38,0.00,,SCT,-99.99,VWS V12.07,2013-09-19 14:30:00,
2013-09-19 16:40:00,75.6,49.6,29.47,North,0,0.0,0.0,40,0.00,,SCT,-99.99,VWS V12.07,2013-09-19 14:40:00,
2013-09-19 16:51:00,75.7,49.7,29.47,North,0,0.0,0.0,40,0.00,,SCT,-99.99,VWS V12.07,2013-09-19 14:51:00,
2013-09-19 17:00:00,75.2,49.9,29.47,North,0,0.0,0.0,41,0.00,,SCT,-99.99,VWS V12.07,2013-09-19 15:00:00,
2013-09-19 17:10:00,74.8,49.6,29.47,North,0,0.0,0.0,41,0.00,,SCT,-99.99,VWS V12.07,2013-09-19 15:10:00,
2013-09-19 17:20:00,75.0,49.8,29.47,North,0,0.0,0.0,41,0.00,,SCT,-99.99,VWS V12.07,2013-09-19 15:20:00,
2013-09-19 17:30:00,74.8,49.6,29.47,North,0,0.0,0.0,41,0.00,,SCT,-99.99,VWS V12.07,2013-09-19 15:30:00,
2013-09-19 17:40:00,74.7,49.4,29.50,North,0,0.0,0.0,41,0.00,,SCT,-99.99,VWS V12.07,2013-09-19 15:40:00,
2013-09-19 17:50:00,74.3,49.8,29.50,North,0,0.0,0.0,42,0.00,,SCT,-99.99,VWS V12.07,2013-09-19 15:50:00,
2013-09-19 18:00:00,73.8,48.0,29.50,North,0,0.0,0.0,40,0.00,,SCT,-99.99,VWS V12.07,2013-09-19 16:00:00,
2013-09-19 18:10:00,73.4,48.9,29.50,North,0,0.0,0.0,42,0.00,,SCT,-99.99,VWS V12.07,2013-09-19 16:10:00,
2013-09-19 18:20:00,73.6,48.5,29.50,North,0,0.0,0.0,41,0.00,,SCT,-99.99,VWS V12.07,2013-09-19 16:20:00,
2013-09-19 18:30:00,73.2,49.4,29.50,North,0,0.0,0.0,43,0.00,,SCT,-99.99,VWS V12.07,2013-09-19 16:30:00,
2013-09-19 18:40:00,72.5,50.0,29.50,North,0,0.0,0.0,45,0.00,,FEW030,-99.99,VWS V12.07,2013-09-19 16:40:00,
2013-09-19 18:50:00,72.0,50.1,29.50,North,0,0.0,0.0,46,0.00,,FEW030,-99.99,VWS V12.07,2013-09-19 16:50:00,
2013-09-19 19:00:00,71.4,49.0,29.50,North,0,0.0,0.0,45,0.00,,FEW030,-99.99,VWS V12.07,2013-09-19 17:00:00,
2013-09-19 19:10:00,71.1,48.7,29.50,North,0,0.0,0.0,45,0.00,,FEW030,-99.99,VWS V12.07,2013-09-19 17:10:00,
2013-09-19 19:20:00,71.1,48.7,29.53,North,0,0.0,0.0,45,0.00,,FEW030,-99.99,VWS V12.07,2013-09-19 17:20:00,
2013-09-19 19:30:00,71.1,49.3,29.53,North,0,0.0,0.0,46,0.00,,FEW030,-99.99,VWS V12.07,2013-09-19 17:30:00,
2013-09-19 19:40:00,70.9,49.1,29.53,North,0,0.0,0.0,46,0.00,,FEW,-99.99,VWS V12.07,2013-09-19 17:40:00,
2013-09-19 19:50:00,70.3,49.2,29.53,North,0,0.0,0.0,47,0.00,,FEW,-99.99,VWS V12.07,2013-09-19 17:50:00,
2013-09-19 20:00:00,69.8,48.1,29.53,North,0,0.0,0.0,46,0.00,,FEW,-99.99,VWS V12.07,2013-09-19 18:00:00,
2013-09-19 20:10:00,69.8,48.1,29.53,North,0,0.0,0.0,46,0.00,,FEW,-99.99,VWS V12.07,2013-09-19 18:10:00,
2013-09-19 20:20:00,69.6,48.5,29.53,North,0,0.0,0.0,47,0.00,,FEW,-99.99,VWS V12.07,2013-09-19 18:20:00,
2013-09-19 20:30:00,69.4,48.3,29.53,North,0,0.0,0.0,47,0.00,,FEW,-99.99,VWS V12.07,2013-09-19 18:30:00,
2013-09-19 20:40:00,69.6,47.4,29.53,North,0,0.0,0.0,45,0.00,,FEW,-99.99,VWS V12.07,2013-09-19 18:40:00,
2013-09-19 20:50:00,69.6,46.8,29.56,North,0,0.0,0.0,44,0.00,,FEW,-99.99,VWS V12.07,2013-09-19 18:50:00,
2013-09-19 21:00:00,69.4,47.2,29.56,North,0,0.0,0.0,45,0.00,,FEW,-99.99,VWS V12.07,2013-09-19 19:00:00,
2013-09-19 21:10:00,68.9,47.9,29.56,North,0,0.0,0.0,47,0.00,,FEW,-99.99,VWS V12.07,2013-09-19 19:10:00,
2013-09-19 21:20:00,68.7,47.7,29.56,North,0,0.0,0.0,47,0.00,,FEW,-99.99,VWS V12.07,2013-09-19 19:20:00,
2013-09-19 21:30:00,68.7,47.1,29.56,North,0,0.0,0.0,46,0.00,,FEW,-99.99,VWS V12.07,2013-09-19 19:30:00,
2013-09-19 21:40:00,68.7,47.1,29.56,North,0,0.0,0.0,46,0.00,,SKC,-99.99,VWS V12.07,2013-09-19 19:40:00,
2013-09-19 21:50:00,68.7,46.5,29.56,North,0,0.0,0.0,45,0.00,,SKC,-99.99,VWS V12.07,2013-09-19 19:50:00,
2013-09-19 22:00:00,68.4,46.8,29.56,North,0,0.0,0.0,46,0.00,,SKC,-99.99,VWS V12.07,2013-09-19 20:00:00,
2013-09-19 22:10:00,68.5,47.0,29.56,North,0,0.0,0.0,46,0.00,,SKC,-99.99,VWS V12.07,2013-09-19 20:10:00,
2013-09-19 22:20:00,68.5,47.0,29.56,North,0,0.0,0.0,46,0.00,,SKC,-99.99,VWS V12.07,2013-09-19 20:20:00,
2013-09-19 22:30:00,68.2,46.6,29.56,North,0,0.0,0.0,46,0.00,,SKC,-99.99,VWS V12.07,2013-09-19 20:30:00,
2013-09-19 22:40:00,68.0,47.0,29.56,North,0,0.0,0.0,47,0.00,,SKC,-99.99,VWS V12.07,2013-09-19 20:40:00,
2013-09-19 22:50:00,68.0,47.0,29.56,North,0,0.0,0.0,47,0.00,,SKC,-99.99,VWS V12.07,2013-09-19 20:50:00,
2013-09-19 23:00:00,68.0,46.5,29.56,North,0,0.0,0.0,46,0.00,,SKC,-99.99,VWS V12.07,2013-09-19 21:00:00,
2013-09-19 23:10:00,68.0,46.5,29.56,North,0,0.0,0.0,46,0.00,,SKC,-99.99,VWS V12.07,2013-09-19 21:10:00,
2013-09-19 23:20:00,68.0,46.5,29.56,North,0,0.0,0.0,46,0.00,,SKC,-99.99,VWS V12.07,2013-09-19 21:20:00,
2013-09-19 23:30:00,68.0,46.5,29.56,North,0,0.0,0.0,46,0.00,,SKC,-99.99,VWS V12.07,2013-09-19 21:30:00,
2013-09-19 23:40:00,68.0,46.5,29.56,North,0,0.0,0.0,46,0.00,,SKC,-99.99,VWS V12.07,2013-09-19 21:40:00,
2013-09-19 23:50:00,67.8,46.9,29.56,North,0,0.0,0.0,47,0.00,,SKC,-99.99,VWS V12.07,2013-09-19 21:50:00,